Погода в Капитанщино

Россия / Липецкая область     52°42′54″N   39°46′54″E
темп.,
°C
ветер,
м/с
пор.,
м/с
влажн.,
%
обл.,
%
осадки,
мм/ч
давл.,
гПа
погр.,
м
27 октября, ср
ср2700:00+3юз51352100 0.0 1027361
03:00+3юз51354100 0.0 1026359
06:00+2юз5135897 0.0 1025349
09:00+3юз6145284 0.0 1024457
12:00+8юз8133923 0.0 1022777
15:00+9юз712375 0.0 10201021
18:00+7юз7145031 0.0 1019625
21:00+7зюз61266100 0.0 1019733
28 октября, чт
чт2800:00+7з5972100 0.0 1019480
03:00+6зюз378260 0.0 1019240
06:00+4юз4889100 0.0 1019186
09:00+6юз51181100 0.0 1018383
12:00+9юз61267100 0.1 1016662
15:00+7зюз61286100 0.7 1015653
18:00+7з51092100 1.2 1015502
21:00+8зсз41194100 1.8 1016468
29 октября, пт
пт2900:00+9сз41087100 0.0 1018477
03:00+7ссв698598 0.1 1021764
06:00+7св5974100 0.0 1025937
09:00+6св487718 0.0 1028501
12:00+9св34575 0.0 1030958
15:00+9св22535 0.0 1030918
18:00+6всв22725 0.0 103222
21:00+5юв11755 0.0 103313
30 октября, сб
сб3000:00+4ююз22785 0.0 103325
03:00+3юз23815 0.0 103444
06:00+3юз238130 0.0 103439
09:00+5юз247520 0.0 1035136
12:00+9юз45575 0.0 1034487
15:00+10юз35515 0.0 1034619
18:00+7юз33650 0.0 103450
21:00+5ююз35710 0.0 103483
31 октября, вс
вс3100:00+4юз36760 0.0 103496
03:00+4юз34785 0.0 103463
06:00+3ююз34795 0.0 103458
09:00+4ююз36690 0.0 1034167
12:00+9ююз46470 0.0 1033435
15:00+11ююз36400 0.0 1031580
18:00+7ююз33510 0.0 103148
21:00+5ю35580 0.0 103175